Flag for Germany Weather past 2 weeks in Frankenthal (Pfalz), Rhineland-Palatinate, Germany

Now
59 °F

Sunny.


Feels Like: 60 °F
Forecast: 47 / 70 °F
Wind: 3 mph from North

Location: Baden Wurttemberg - Neuostheim

Current Time: May 27, 2015 at 9:01:45 PM

Latest Report: May 27, 2015 at 8:20 PM


Visibility: 10 mi

Pressure: 30.18 "Hg

Humidity: 42%

Dew point: 36 °F

Location of Frankenthal (Pfalz)Location

Historic Weather in Frankenthal (Pfalz) — Graph

°F

Frankenthal (Pfalz) temperature yesterday

Maximum temperature yesterday: 61 °F (at 2:50 PM)
Minimum temperature yesterday: 52 °F (at 5:20 AM)
Average temperature yesterday: 57 °F

Past Weeks' High & Low Weather Summary

 TemperatureHumidityPressure
High81 °F (May 12, 7:20 PM)100% (May 15, 5:50 AM)30.33 "Hg (May 15, 5:50 AM)
Low41 °F (May 22, 5:20 AM)25% (May 18, 6:20 PM)29.71 "Hg (May 18, 6:50 PM)
Average61 °F52%30.06 "Hg
* Reported May 12 7:20 PM — May 27 7:50 PM, Frankenthal (Pfalz), Weather by CustomWeather, © 2015

Note: Actual official high and low records may vary slightly from our data, if they occured in-between our weather recording intervals... More about our weather records

Advertising

Frankenthal (Pfalz) weather history for previous 24 hours

 ConditionsComfort  
Time TempWeatherWind HumidityBarometerVisibility
7:50 PM
Wed, May 27
59 °FPassing clouds.6 mph42%30.18 "HgN/A
7:20 PM59 °FPassing clouds.7 mph39%30.21 "HgN/A
6:50 PM59 °FPassing clouds.7 mph39%30.21 "HgN/A
6:20 PM61 °FPassing clouds.8 mph36%30.21 "HgN/A
5:50 PM59 °FPassing clouds.5 mph42%30.21 "HgN/A
5:20 PM61 °FPassing clouds.5 mph42%30.21 "HgN/A
4:50 PM59 °FScattered clouds.2 mph42%30.21 "HgN/A
4:20 PM57 °FPartly sunny.3 mph48%30.24 "HgN/A
3:50 PM57 °FOvercast.5 mph48%30.24 "HgN/A
3:20 PM57 °FPartly sunny.6 mph48%30.24 "HgN/A
2:50 PM57 °FBroken clouds.7 mph51%30.24 "HgN/A
2:20 PM57 °FPartly sunny.6 mph51%30.24 "HgN/A
1:50 PM55 °FPartly sunny.8 mph51%30.27 "HgN/A
1:20 PM55 °FPartly sunny.7 mph51%30.24 "HgN/A
12:50 PM55 °FMore clouds than sun.5 mph51%30.27 "HgN/A
12:20 PM55 °FPartly sunny.3 mph55%30.27 "HgN/A
11:50 AM55 °FPartly sunny.5 mph55%30.27 "HgN/A
11:20 AM55 °FPartly sunny.6 mph63%30.27 "HgN/A
10:50 AM54 °FPartly sunny.5 mph63%30.27 "HgN/A
10:20 AM54 °FPassing clouds.6 mph63%30.27 "HgN/A
9:50 AM52 °FPartly sunny.7 mph67%30.27 "HgN/A
9:20 AM52 °FPartly sunny.8 mph67%30.27 "HgN/A
8:50 AM50 °FPassing clouds.6 mph71%30.27 "HgN/A
8:20 AM50 °FPassing clouds.7 mph71%30.27 "HgN/A
7:50 AM48 °FOvercast.6 mph76%30.27 "HgN/A
7:20 AM48 °FPartly sunny.5 mph76%30.27 "HgN/A
6:50 AM46 °FBroken clouds.5 mph82%30.24 "HgN/A
6:20 AM46 °FClear.3 mph82%30.24 "Hg10 mi
5:50 AM46 °FClear.3 mph82%30.24 "Hg10 mi
5:20 AM48 °FPassing clouds.3 mph76%30.24 "HgN/A
9:20 PM
Tue, May 26
55 °FPassing clouds.9 mph51%30.18 "HgN/A
Weather by CustomWeather, © 2015

See weather overviewHow to use our weather pages